Professional Rodeo Cowboys Association
PRCA RAM WORLD STANDINGS
ProRodeo Gear Official Merchandise Of The PRCA

PRCA Stock Statistics

SEARCH BY:
Stock Rodeo Contestant Stock Contractor

Hunter Green

EVENT:
Unofficial results reflect placement at time of Web posting and can change.

SEASON BREAKDOWN

Season Attempts Qual Rides Re-rides Ride %
2019 31 25 0 80.65 %
Totals 31 25 0 0.00 %

RODEO DETAIL

Date Location Rodeo SC Brand Ride Comments Stock Score Contestant Score
7/13/2019 Spooner, WI Heart Of The North Rodeo UR 293 76.00 19.00 / 18.00 18.00 / 21.00
7/12/2019 Isanti, MN 43rd Annual Isanti Firefighters Rodeo DK 444 78.50 19.00 / 20.50 19.00 / 20.00
7/11/2019 Hamel, MN Hamel Rodeo & Bull Ridin Bonanza JB N358 76.00 18.00 / 19.00 20.00 / 19.00
7/6/2019 Manawa, WI Mid-Western Rodeo TH J23 80.50 21.50 / 22.00 21.00 / 16.00
7/5/2019 Galena, IL Shenandoah Pro Rodeo TH E21 78.00 18.00 / 18.00 23.00 / 19.00
7/4/2019 Mandan, ND Mandan Rodeo Days DK 173 0.00 21.50 / 20.00 0.00 / 0.00
7/3/2019 Greeley, CO Greeley Stampede BU 90 0.00 23.00 / 23.00 0.00 / 0.00
7/1/2019 Prescott, AZ World s Oldest Rodeo HV 202 76.00 18.50 / 21.00 18.50 / 18.00
6/29/2019 Greeley, CO Greeley Stampede BU 727 82.50 20.50 / 21.00 20.50 / 20.50
6/28/2019 Springdale, AR Rodeo of The Ozarks RH 01 64.00 22.00 / 21.00 13.00 / 8.00
5/17/2019 Shawnee, OK Cowboy Country Fest BF 32 74.00 19.00 / 20.00 18.00 / 17.00
5/11/2019 Las Vegas, NV Las Vegas Days (Helldorado) BT A+6 73.00 17.00 / 19.00 17.00 / 20.00
4/25/2019 Corpus Christi, TX Rodeo Corpus Christi FR 305 0.00 22.50 / 23.00 0.00 / 0.00
4/24/2019 Lufkin, TX Angelina Benefit Rodeo UP 107 0.00 21.00 / 22.00 0.00 / 0.00
4/12/2019 Madison, WI Midwest Horse Fair & Rodeo BA 6H9 72.00 19.00 / 19.00 18.00 / 16.00
3/22/2019 Springfield, MO Ozark Empire Pro Rodeo BF 155 66.00 17.00 / 17.00 18.00 / 14.00
3/16/2019 Montgomery, AL Southeastern Livestock Exposition FR 08 80.00 20.00 / 21.00 20.00 / 19.00
3/10/2019 Arcadia, FL 91st Annual Arcadia All-Florida Championship Rodeo FR 100 78.00 19.00 / 21.00 19.00 / 19.00
3/9/2019 Okeechobee, FL Okeechobee Florida Cowtown Rodeo FS 91 77.00 19.00 / 19.00 19.00 / 20.00
2/23/2019 Raleigh, NC Cinch World s Toughest Rodeo BR 308 74.50 20.50 / 20.00 17.00 / 17.00
2/17/2019 Okeechobee, FL Brighton Field Day & Rodeo PP 9X 78.50 19.00 / 19.00 20.00 / 20.50
2/16/2019 Kissimmee, FL 142nd Silver Spurs Rodeo PP 304 71.50 16.00 / 18.50 20.50 / 16.50
2/10/2019 Jackson, MS Dixie National Rodeo UR X40 0.00 21.00 / 18.50 0.00 / 0.00
2/9/2019 Starkville, MS Rotary Rodeo FL Z96 79.00 19.00 / 20.00 20.00 / 20.00
2/2/2019 Indianapolis, IN Cinch World s Toughest Rodeo TH I3 83.50 20.50 / 20.50 21.00 / 21.50
Page of 2
Per Page
 
 
 
PRCA Sponsors


MGM Grand Polaris Ranger American Quarter Horse Association Cinch Jeans Gold Buckle Beer Outlaw Equine

Copyright © 2019 Professional Rodeo Cowboys Association. All rights reserved. No portion of ProRodeo.com may be duplicated, redistributed or manipulated in any form. By accessing any information beyond this page, you agree to abide by the Terms of Use.


PRCA Wrangler National Finals Rodeo Wrangler ProRodeo Tour Finale Presented by Justin Boots Xtreme Bulls RAM National Circuit Finals Rodeo ProRodeo Gear ProRodeo Tour World Standings Tour Standings PRCA Rodeo Schedule Rodeo Results Facebook Twitter Instagram YouTube Mobile App ProRodeoTv.Com